Time,TemperatureF,DewpointF,PressureIn,WindDirection,WindDirectionDegrees,WindSpeedMPH,WindSpeedGustMPH,Humidity,HourlyPrecipIn,Conditions,Clouds,dailyrainin,SoftwareType,DateUTC
2013-03-11 00:01:00,36.0,35.0,29.67,West,281,0.0,1.0,97,0.02,,,0.23,weatherlink.com 1.10,2013-03-11 05:01:00,
2013-03-11 00:16:00,35.9,35.0,29.67,West,281,1.0,2.0,97,0.01,,,0.23,weatherlink.com 1.10,2013-03-11 05:16:00,
2013-03-11 00:31:00,35.9,35.0,29.66,West,281,0.0,1.0,97,0.01,,,0.23,weatherlink.com 1.10,2013-03-11 05:31:00,
2013-03-11 00:46:00,35.5,35.0,29.66,West,281,2.0,2.0,97,0.00,,,0.23,weatherlink.com 1.10,2013-03-11 05:46:00,
2013-03-11 01:01:00,35.5,35.0,29.66,West,281,0.0,3.0,97,0.01,,,0.24,weatherlink.com 1.10,2013-03-11 06:01:00,
2013-03-11 01:16:00,35.6,35.0,29.66,West,281,0.0,1.0,97,0.01,,,0.24,weatherlink.com 1.10,2013-03-11 06:16:00,
2013-03-11 01:31:00,35.6,35.0,29.66,West,281,0.0,2.0,97,0.01,,,0.24,weatherlink.com 1.10,2013-03-11 06:31:00,
2013-03-11 01:46:00,35.7,35.0,29.66,West,281,0.0,2.0,97,0.01,,,0.24,weatherlink.com 1.10,2013-03-11 06:46:00,
2013-03-11 02:01:00,35.7,35.0,29.66,West,281,0.0,0.0,97,0.00,,,0.24,weatherlink.com 1.10,2013-03-11 07:01:00,
2013-03-11 02:16:00,35.4,35.0,29.66,West,281,0.0,0.0,97,0.00,,,0.24,weatherlink.com 1.10,2013-03-11 07:16:00,
2013-03-11 02:32:00,35.0,34.0,29.65,West,281,0.0,1.0,97,0.00,,,0.24,weatherlink.com 1.10,2013-03-11 07:32:00,
2013-03-11 02:46:00,35.0,34.0,29.64,West,281,0.0,1.0,97,0.00,,,0.24,weatherlink.com 1.10,2013-03-11 07:46:00,
2013-03-11 03:02:00,35.0,34.0,29.64,West,281,0.0,0.0,97,0.00,,,0.24,weatherlink.com 1.10,2013-03-11 08:02:00,
2013-03-11 03:32:00,37.3,37.0,29.63,West,281,1.0,3.0,97,0.00,,,0.24,weatherlink.com 1.10,2013-03-11 08:32:00,
2013-03-11 03:47:00,37.9,37.0,29.62,West,281,2.0,3.0,98,0.00,,,0.24,weatherlink.com 1.10,2013-03-11 08:47:00,
2013-03-11 04:02:00,38.2,38.0,29.63,WSW,240,3.0,5.0,98,0.00,,,0.00,weatherlink.com 1.10,2013-03-11 09:02:00,
2013-03-11 04:17:00,38.6,38.0,29.63,SW,216,7.0,10.0,97,0.00,,,0.00,weatherlink.com 1.10,2013-03-11 09:17:00,
2013-03-11 04:32:00,38.0,37.0,29.63,SSW,200,4.0,7.0,97,0.00,,,0.00,weatherlink.com 1.10,2013-03-11 09:32:00,
2013-03-11 04:47:00,37.2,37.0,29.63,West,270,3.0,10.0,97,0.00,,,0.00,weatherlink.com 1.10,2013-03-11 09:47:00,
2013-03-11 05:02:00,36.6,36.0,29.63,SW,218,6.0,7.0,97,0.00,,,0.00,weatherlink.com 1.10,2013-03-11 10:02:00,
2013-03-11 05:17:00,36.2,36.0,29.63,WSW,252,3.0,6.0,97,0.00,,,0.00,weatherlink.com 1.10,2013-03-11 10:17:00,
2013-03-11 05:32:00,35.7,35.0,29.63,WSW,253,3.0,6.0,97,0.00,,,0.00,weatherlink.com 1.10,2013-03-11 10:32:00,
2013-03-11 05:47:00,35.2,35.0,29.62,West,271,8.0,9.0,97,0.00,,,0.00,weatherlink.com 1.10,2013-03-11 10:47:00,
2013-03-11 06:02:00,34.6,34.0,29.62,West,273,3.0,7.0,97,0.00,,,0.00,weatherlink.com 1.10,2013-03-11 11:02:00,
2013-03-11 06:17:00,33.9,33.0,29.63,WSW,256,3.0,8.0,97,0.00,,,0.00,weatherlink.com 1.10,2013-03-11 11:17:00,
2013-03-11 06:32:00,33.6,33.0,29.65,West,281,4.0,9.0,97,0.00,,,0.00,weatherlink.com 1.10,2013-03-11 11:32:00,
2013-03-11 06:47:00,33.4,33.0,29.65,WNW,290,3.0,7.0,97,0.01,,,0.01,weatherlink.com 1.10,2013-03-11 11:47:00,
2013-03-11 07:02:00,32.8,32.0,29.66,NW,309,1.0,5.0,97,0.01,,,0.01,weatherlink.com 1.10,2013-03-11 12:02:00,
2013-03-11 07:17:00,32.7,32.0,29.66,WNW,291,2.0,3.0,97,0.01,,,0.01,weatherlink.com 1.10,2013-03-11 12:17:00,
2013-03-11 07:32:00,32.6,32.0,29.67,WNW,291,3.0,4.0,97,0.01,,,0.01,weatherlink.com 1.10,2013-03-11 12:32:00,
2013-03-11 07:47:00,32.5,32.0,29.67,WNW,295,3.0,3.0,97,0.00,,,0.01,weatherlink.com 1.10,2013-03-11 12:47:00,
2013-03-11 08:02:00,32.4,32.0,29.66,West,271,0.0,2.0,97,0.00,,,0.01,weatherlink.com 1.10,2013-03-11 13:02:00,
2013-03-11 08:17:00,32.5,32.0,29.66,West,276,3.0,3.0,97,0.00,,,0.01,weatherlink.com 1.10,2013-03-11 13:17:00,
2013-03-11 08:32:00,32.5,32.0,29.65,NW,315,4.0,5.0,97,0.00,,,0.01,weatherlink.com 1.10,2013-03-11 13:32:00,
2013-03-11 08:47:00,32.4,32.0,29.65,West,279,1.0,5.0,97,0.00,,,0.01,weatherlink.com 1.10,2013-03-11 13:47:00,
2013-03-11 09:02:00,32.6,32.0,29.65,West,279,1.0,2.0,97,0.00,,,0.01,weatherlink.com 1.10,2013-03-11 14:02:00,
2013-03-11 09:17:00,32.8,32.0,29.65,West,279,0.0,2.0,97,0.00,,,0.01,weatherlink.com 1.10,2013-03-11 14:17:00,
2013-03-11 09:32:00,32.9,32.0,29.64,West,279,2.0,3.0,97,0.00,,,0.01,weatherlink.com 1.10,2013-03-11 14:32:00,
2013-03-11 09:47:00,33.1,32.0,29.64,West,279,0.0,2.0,97,0.00,,,0.01,weatherlink.com 1.10,2013-03-11 14:47:00,
2013-03-11 10:02:00,33.1,32.0,29.62,WNW,285,1.0,4.0,97,0.00,,,0.01,weatherlink.com 1.10,2013-03-11 15:02:00,
2013-03-11 10:17:00,33.3,33.0,29.62,NW,309,2.0,3.0,97,0.00,,,0.01,weatherlink.com 1.10,2013-03-11 15:17:00,
2013-03-11 10:32:00,33.5,33.0,29.62,NW,309,1.0,3.0,97,0.00,,,0.01,weatherlink.com 1.10,2013-03-11 15:32:00,
2013-03-11 10:47:00,33.5,33.0,29.62,NW,309,1.0,3.0,97,0.00,,,0.01,weatherlink.com 1.10,2013-03-11 15:47:00,
2013-03-11 11:02:00,33.5,33.0,29.62,West,271,3.0,6.0,97,0.00,,,0.01,weatherlink.com 1.10,2013-03-11 16:02:00,
2013-03-11 11:18:00,33.5,33.0,29.61,WNW,300,1.0,6.0,97,0.00,,,0.01,weatherlink.com 1.10,2013-03-11 16:18:00,
2013-03-11 11:32:00,33.5,33.0,29.61,WNW,286,1.0,5.0,97,0.00,,,0.01,weatherlink.com 1.10,2013-03-11 16:32:00,
2013-03-11 11:48:00,33.7,33.0,29.60,West,278,1.0,5.0,97,0.00,,,0.01,weatherlink.com 1.10,2013-03-11 16:48:00,
2013-03-11 12:03:00,33.7,33.0,29.60,WNW,285,2.0,5.0,97,0.01,,,0.02,weatherlink.com 1.10,2013-03-11 17:03:00,
2013-03-11 12:18:00,33.7,33.0,29.60,NW,310,2.0,5.0,97,0.01,,,0.02,weatherlink.com 1.10,2013-03-11 17:18:00,
2013-03-11 12:33:00,33.6,33.0,29.60,WNW,290,3.0,5.0,97,0.01,,,0.02,weatherlink.com 1.10,2013-03-11 17:33:00,
2013-03-11 12:48:00,33.7,33.0,29.60,WNW,293,0.0,4.0,97,0.01,,,0.02,weatherlink.com 1.10,2013-03-11 17:48:00,
2013-03-11 13:03:00,33.7,33.0,29.59,WNW,296,1.0,5.0,97,0.00,,,0.02,weatherlink.com 1.10,2013-03-11 18:03:00,
2013-03-11 13:18:00,33.6,33.0,29.59,West,281,1.0,4.0,97,0.00,,,0.02,weatherlink.com 1.10,2013-03-11 18:18:00,
2013-03-11 13:33:00,33.5,33.0,29.59,WNW,291,0.0,5.0,97,0.00,,,0.02,weatherlink.com 1.10,2013-03-11 18:33:00,
2013-03-11 13:48:00,33.5,33.0,29.59,WNW,291,2.0,4.0,97,0.00,,,0.02,weatherlink.com 1.10,2013-03-11 18:48:00,
2013-03-11 14:03:00,33.4,33.0,29.59,WNW,289,4.0,6.0,97,0.01,,,0.03,weatherlink.com 1.10,2013-03-11 19:03:00,
2013-03-11 14:18:00,33.2,33.0,29.59,WNW,302,2.0,5.0,97,0.01,,,0.03,weatherlink.com 1.10,2013-03-11 19:18:00,
2013-03-11 14:33:00,33.1,32.0,29.58,West,274,2.0,7.0,97,0.01,,,0.03,weatherlink.com 1.10,2013-03-11 19:33:00,
2013-03-11 14:48:00,33.1,32.0,29.57,WNW,297,4.0,6.0,97,0.01,,,0.03,weatherlink.com 1.10,2013-03-11 19:48:00,
2013-03-11 15:03:00,33.0,32.0,29.57,WNW,285,3.0,8.0,97,0.00,,,0.03,weatherlink.com 1.10,2013-03-11 20:03:00,
2013-03-11 15:18:00,32.9,32.0,29.57,West,280,5.0,6.0,97,0.00,,,0.03,weatherlink.com 1.10,2013-03-11 20:18:00,
2013-03-11 15:33:00,33.0,32.0,29.58,West,277,2.0,6.0,97,0.00,,,0.03,weatherlink.com 1.10,2013-03-11 20:33:00,
2013-03-11 15:48:00,32.9,32.0,29.58,NW,315,5.0,10.0,97,0.01,,,0.04,weatherlink.com 1.10,2013-03-11 20:48:00,
2013-03-11 16:03:00,32.9,32.0,29.59,West,271,4.0,8.0,97,0.01,,,0.04,weatherlink.com 1.10,2013-03-11 21:03:00,
2013-03-11 16:18:00,32.8,32.0,29.59,West,281,4.0,9.0,97,0.01,,,0.04,weatherlink.com 1.10,2013-03-11 21:18:00,
2013-03-11 16:33:00,32.7,32.0,29.60,WNW,296,2.0,7.0,97,0.01,,,0.04,weatherlink.com 1.10,2013-03-11 21:33:00,
2013-03-11 16:48:00,32.8,32.0,29.60,WSW,252,4.0,7.0,97,0.00,,,0.04,weatherlink.com 1.10,2013-03-11 21:48:00,
2013-03-11 17:03:00,33.0,32.0,29.61,WNW,284,3.0,7.0,97,0.01,,,0.05,weatherlink.com 1.10,2013-03-11 22:03:00,
2013-03-11 17:18:00,32.9,32.0,29.61,WNW,290,2.0,11.0,96,0.01,,,0.05,weatherlink.com 1.10,2013-03-11 22:18:00,
2013-03-11 17:33:00,32.9,32.0,29.63,West,261,3.0,8.0,96,0.01,,,0.05,weatherlink.com 1.10,2013-03-11 22:33:00,
2013-03-11 17:48:00,32.9,32.0,29.63,WSW,251,5.0,6.0,96,0.01,,,0.05,weatherlink.com 1.10,2013-03-11 22:48:00,
2013-03-11 18:03:00,32.8,32.0,29.64,WNW,283,5.0,7.0,96,0.00,,,0.05,weatherlink.com 1.10,2013-03-11 23:03:00,
2013-03-11 18:18:00,32.8,32.0,29.65,West,277,1.0,7.0,96,0.00,,,0.05,weatherlink.com 1.10,2013-03-11 23:18:00,
2013-03-11 18:33:00,32.7,32.0,29.66,WNW,287,3.0,7.0,96,0.00,,,0.05,weatherlink.com 1.10,2013-03-11 23:33:00,
2013-03-11 18:48:00,32.6,32.0,29.67,WNW,298,2.0,8.0,96,0.00,,,0.05,weatherlink.com 1.10,2013-03-11 23:48:00,
2013-03-11 19:18:00,32.2,31.0,29.68,West,279,4.0,9.0,96,0.00,,,0.05,weatherlink.com 1.10,2013-03-12 00:18:00,
2013-03-11 19:33:00,32.1,31.0,29.69,WNW,288,4.0,6.0,96,0.00,,,0.05,weatherlink.com 1.10,2013-03-12 00:33:00,
2013-03-11 19:48:00,31.9,31.0,29.69,West,265,1.0,9.0,96,0.00,,,0.05,weatherlink.com 1.10,2013-03-12 00:48:00,
2013-03-11 20:03:00,31.8,31.0,29.70,West,268,5.0,9.0,96,0.00,,,0.05,weatherlink.com 1.10,2013-03-12 01:03:00,
2013-03-11 20:18:00,31.5,31.0,29.71,WSW,253,10.0,13.0,96,0.00,,,0.05,weatherlink.com 1.10,2013-03-12 01:18:00,
2013-03-11 20:33:00,31.3,30.0,29.72,West,277,4.0,13.0,96,0.00,,,0.05,weatherlink.com 1.10,2013-03-12 01:33:00,
2013-03-11 21:19:00,30.5,29.0,29.74,West,277,7.0,9.0,95,0.00,,,0.05,weatherlink.com 1.10,2013-03-12 02:19:00,
2013-03-11 21:34:00,30.5,29.0,29.74,West,277,4.0,10.0,95,0.00,,,0.05,weatherlink.com 1.10,2013-03-12 02:34:00,
2013-03-11 21:49:00,30.4,29.0,29.74,West,277,5.0,9.0,95,0.00,,,0.05,weatherlink.com 1.10,2013-03-12 02:49:00,
2013-03-11 22:19:00,30.1,29.0,29.76,West,277,3.0,12.0,94,0.00,,,0.05,weatherlink.com 1.10,2013-03-12 03:19:00,
2013-03-11 22:34:00,29.9,28.0,29.76,West,277,4.0,10.0,93,0.00,,,0.05,weatherlink.com 1.10,2013-03-12 03:34:00,
2013-03-11 22:49:00,29.9,28.0,29.76,West,277,4.0,10.0,93,0.00,,,0.05,weatherlink.com 1.10,2013-03-12 03:49:00,
2013-03-11 23:04:00,30.0,28.0,29.77,West,277,6.0,11.0,93,0.00,,,0.05,weatherlink.com 1.10,2013-03-12 04:04:00,
2013-03-11 23:19:00,30.0,29.0,29.78,West,277,2.0,10.0,94,0.00,,,0.05,weatherlink.com 1.10,2013-03-12 04:19:00,
2013-03-11 23:34:00,29.9,28.0,29.78,West,277,5.0,10.0,93,0.00,,,0.05,weatherlink.com 1.10,2013-03-12 04:34:00,
2013-03-11 23:49:00,29.6,28.0,29.79,West,277,3.0,11.0,92,0.00,,,0.05,weatherlink.com 1.10,2013-03-12 04:49:00,